Regional Weather Roundup
Issued by NWS

Home | Current Version | Previous Version | Graphics & Text | Print | Product List | Glossary On
Versions: 1 2 3 4 5 6 7 8 9 10 11 12 13 14 15 16 17 18 19 20 21 22 23 24 25 26 27 28 29 30 31 32 33 34 35 36 37 38 39 40 41 42 43 44 45 46 47 48 49 50
000
ASUS43 KLMK 221310
RWRKY
KENTUCKY REGIONAL WEATHER ROUNDUP
NATIONAL WEATHER SERVICE LOUISVILLE KY
900 AM EDT SUN OCT 22 2017

NOTE "FAIR" INDICATES FEW OR NO CLOUDS BELOW 12,000 FEET
WITH NO SIGNIFICANT WEATHER AND/OR OBSTRUCTIONS TO VISIBILITY.

KYZ001>023-026-027-061>063-070>075-221400-
WESTERN AND SOUTH CENTRAL KENTUCKY

CITY           SKY/WX    TMP DP  RH WIND       PRES   REMARKS
PADUCAH        LGT RAIN  65  60  84 S12       30.02R
HENDERSON      CLOUDY    63  56  78 SE7       30.07R
OWENSBORO      PTCLDY    62  54  74 SE15      30.10R
HOPKINSVILLE   CLOUDY    64  55  72 SE7       30.10R
BOWLING GREEN  SUNNY     57  54  89 E3        30.15R
GLASGOW        MOSUNNY   65  52  61 S5        30.17R
$$

KYZ024-025-028>034-038-045-046-053-221400-
NORTH CENTRAL KENTUCKY

CITY           SKY/WX    TMP DP  RH WIND       PRES   REMARKS
LOUISVILLE/SDF PTSUNNY   61  50  67 E3        30.17R
LOUISVILLE/LOU SUNNY     60  51  72 SE7       30.18R
FORT KNOX      SUNNY     61  49  65 SE13      30.15R
$$

KYZ035>037-039>044-047>052-055>060-089>105-221400-
NORTHEAST KENTUCKY

CITY           SKY/WX    TMP DP  RH WIND       PRES   REMARKS
LEXINGTON      SUNNY     59  49  69 SE10G20   30.22R
COVINGTON      PTSUNNY   57  50  77 S8        30.20R
FRANKFORT      SUNNY     60  48  64 SE8       30.20R
$$

KYZ054-064>069-076>088-106>120-221400-
SOUTHEAST KENTUCKY

CITY           SKY/WX    TMP DP  RH WIND       PRES   REMARKS
JACKSON        SUNNY     57  47  69 E5        30.28R
LONDON         SUNNY     52  47  83 CALM      30.25S
SOMERSET       SUNNY     52  52 100 CALM      30.26R
MIDDLESBORO    PTSUNNY   45  45 100 CALM      30.29S FOG
MONTICELLO     MOSUNNY   60  51  72 VRB6      30.25R
$$





USA.gov is the U.S. government's official web portal to all federal, state and local government web resources and services.